Location: G�ppingen
(48.7089°N, 9.6563°E)
Time: 04:41:52
(UTC+02:00)

M-CUBED/EXP-1 PRIME - Pass Details

Date: 26 March 2019
Orbit: 430 x 671 km, 101.7° (Epoch: 19 April)

Event Time Altitude Azimuth Distance (km) Brightness Sun altitude
Rises 05:37:07 0° 112° (ESE) 2,613 ? -6.6°
Reaches altitude 10° 05:39:48 10° 89° (E) 1,782 ? -6.2°
Maximum altitude 05:42:05 16° 52° (NE) 1,505 ? -5.8°
Drops below altitude 10° 05:44:30 10° 15° (NNE) 1,877 ? -5.4°
Sets 05:47:25 0° 354° (N) 2,835 ? -5.0°
